Amsterdam, Netherlands

6:46 PM CEST on October 14, 2019 (GMT +0200)
Schiphol

Weather History for EHAM - August, 2019

Change the Weather History Date:

Monday, August 19, 2019

  Actual Average Record
Temperature  
Mean Temperature 63 °F -  
Max Temperature 70 °F 66 °F 88 °F (2012)
Min Temperature 56 °F 52 °F 46 °F (1998)
Degree Days  
Heating Degree Days 2    
Growing Degree Days 13 (Base 50)    
Moisture  
Dew Point 54 °F    
Average Humidity 72    
Maximum Humidity 94    
Minimum Humidity 39    
Precipitation  
Precipitation 0.01 in - - ()
Sea Level Pressure  
Sea Level Pressure 29.93 in    
Wind  
Wind Speed 13 mph ()    
Max Wind Speed 23 mph    
Max Gust Speed -    
Visibility 7.8 miles    
Events Rain    
Averages and records for this station are not official NWS values.
T = Trace of Precipitation, MM = Missing Value Source: Averaged Metar Reports

Daily Weather History Graph

Daily Weather History Graph

Search for Another Location

Airport or City:

Astronomy

Aug. 19, 2019 Rise Set
Actual Time 6:30 AM CEST 8:58 PM CEST
Civil Twilight 5:52 AM CEST 9:35 PM CEST
Nautical Twilight 5:04 AM CEST 10:23 PM CEST
Astronomical Twilight 4:06 AM CEST 11:20 PM CEST
Moon 10:45 PM CEST (8/19) 10:19 AM CEST (8/19)
Length of Visible Light 15h 43m
Length of Day
14h 28m
Waning Gibbous, 87% of the Moon is Illuminated
Aug 19
Waning Gibbous
Aug 23
Last Quarter
Aug 30
New
Sep 6
First Quarter
Sep 14
Full

Hourly Weather History & Observations

Time (CEST) Temp. Dew Point Humidity Pressure Visibility Wind Dir Wind Speed Gust Speed Precip Events Conditions
12:00 AM 60 °F 54 °F 75% 29.80 in 12 mi SSW 11.2 mph - -   Partly Cloudy
12:25 AM 60.8 °F 53.6 °F 77% 29.80 in 6.2 mi SSW 12.7 mph - N/A   Partly Cloudy
12:55 AM 60.8 °F 55.4 °F 82% 29.80 in 6.2 mi SSW 11.5 mph - N/A   Partly Cloudy
1:00 AM 60 °F 55 °F 78% 29.81 in 11 mi SSW 11.2 mph - -   Partly Cloudy
1:25 AM 60.8 °F 55.4 °F 82% 29.80 in 6.2 mi SSW 10.4 mph - N/A   Partly Cloudy
1:55 AM 59.0 °F 55.4 °F 88% 29.80 in 6.2 mi SSW 9.2 mph - N/A   Partly Cloudy
2:25 AM 59.0 °F 55.4 °F 88% 29.80 in 6.2 mi SSW 9.2 mph - N/A   Partly Cloudy
2:55 AM 59.0 °F 55.4 °F 88% 29.80 in 6.2 mi SSW 10.4 mph - N/A   Partly Cloudy
3:00 AM 58 °F 55 °F 87% 29.82 in 9 mi SSW 11.2 mph - -   Partly Cloudy
3:25 AM 57.2 °F 55.4 °F 94% 29.80 in 6.2 mi South 9.2 mph - N/A   Partly Cloudy
3:55 AM 57.2 °F 55.4 °F 94% 29.80 in 6.2 mi SSW 9.2 mph - N/A   Partly Cloudy
4:25 AM 57.2 °F 55.4 °F 94% 29.83 in 6.2 mi SSW 9.2 mph - N/A   Partly Cloudy
4:55 AM 57.2 °F 55.4 °F 94% 29.83 in 6.2 mi SSW 10.4 mph - N/A Rain Light Rain Showers
5:25 AM 59.0 °F 55.4 °F 88% 29.83 in 6.2 mi SW 9.2 mph - N/A Rain Light Rain Showers
5:55 AM 57.2 °F 55.4 °F 94% 29.83 in 6.2 mi SSW 8.1 mph - N/A Rain Light Rain Showers
6:00 AM 57 °F 55 °F 90% 29.85 in 8 mi SSW 8.9 mph - - Rain Rain
6:25 AM 57.2 °F 55.4 °F 94% 29.83 in 6.2 mi SSW 10.4 mph - N/A Rain Light Rain Showers
6:55 AM 59.0 °F 55.4 °F 88% 29.86 in 5.0 mi SSW 12.7 mph - N/A Rain Light Rain Showers
7:00 AM 59 °F 56 °F 88% 29.87 in 6 mi SSW 11.2 mph - - Rain Light Rain Showers
7:25 AM 59.0 °F 55.4 °F 88% 29.86 in 6.2 mi SSW 12.7 mph - N/A   Scattered Clouds
7:55 AM 59.0 °F 57.2 °F 94% 29.86 in 6.2 mi SSW 11.5 mph - N/A   Partly Cloudy
8:00 AM 59 °F 57 °F 89% 29.88 in 8 mi SSW 11.2 mph - - Rain Rain
8:25 AM 59.0 °F 57.2 °F 94% 29.89 in 6.2 mi SSW 12.7 mph - N/A   Partly Cloudy
8:55 AM 60.8 °F 57.2 °F 88% 29.89 in 6.2 mi SSW 16.1 mph - N/A   Partly Cloudy
9:25 AM 62.6 °F 57.2 °F 82% 29.89 in 6.2 mi SSW 17.3 mph - N/A   Partly Cloudy
9:55 AM 64.4 °F 55.4 °F 73% 29.89 in 6.2 mi SSW 17.3 mph - N/A   Scattered Clouds
10:00 AM 64 °F 56 °F 69% 29.90 in 13 mi SW 15.7 mph - -   Partly Cloudy
10:25 AM 64.4 °F 55.4 °F 73% 29.89 in 6.2 mi WSW 19.6 mph - N/A   Scattered Clouds
10:55 AM 66.2 °F 55.4 °F 68% 29.92 in 6.2 mi SW 19.6 mph - N/A   Scattered Clouds
11:25 AM 64.4 °F 51.8 °F 64% 29.92 in 5.0 mi WSW 21.9 mph - N/A   Scattered Clouds
11:55 AM 66.2 °F 55.4 °F 68% 29.92 in 6.2 mi SSW 20.7 mph - N/A   Partly Cloudy
12:00 PM 67 °F 56 °F 58% 29.94 in 12 mi SSW 20.1 mph - -   Partly Cloudy
12:25 PM 64.4 °F 55.4 °F 73% 29.92 in 6.2 mi SW 19.6 mph - N/A Rain Light Rain Showers
12:55 PM 66.2 °F 57.2 °F 73% 29.95 in 5.0 mi SW 23.0 mph - N/A   Partly Cloudy
1:00 PM 66 °F 55 °F 58% 29.96 in 15 mi SW 22.4 mph - - Rain Rain
1:25 PM 68.0 °F 55.4 °F 64% 29.95 in 6.2 mi SW 19.6 mph - N/A   Partly Cloudy
1:55 PM 66.2 °F 50.0 °F 56% 29.95 in 6.2 mi WSW 20.7 mph - N/A   Partly Cloudy
2:00 PM 68 °F 52 °F 45% 29.97 in 15 mi WSW 20.1 mph - -   Partly Cloudy
2:25 PM 66.2 °F 51.8 °F 60% 29.98 in 6.2 mi WSW 18.4 mph - N/A   Partly Cloudy
2:55 PM 69.8 °F 51.8 °F 53% 29.98 in 6.2 mi WSW 20.7 mph - N/A   Partly Cloudy
3:00 PM 69 °F 51 °F 42% 29.99 in 19 mi WSW 20.1 mph - -   Partly Cloudy
3:25 PM 69.8 °F 51.8 °F 53% 29.98 in 6.2 mi WSW 20.7 mph - N/A   Partly Cloudy
3:55 PM 68.0 °F 51.8 °F 56% 29.98 in 6.2 mi WSW 21.9 mph - N/A   Partly Cloudy
4:00 PM 70 °F 53 °F 45% 29.99 in 16 mi WSW 20.1 mph - -   Partly Cloudy
4:25 PM 69.8 °F 53.6 °F 56% 29.98 in 6.2 mi WSW 18.4 mph - N/A   Partly Cloudy
4:55 PM 69.8 °F 48.2 °F 46% 29.98 in 6.2 mi SW 19.6 mph - N/A   Partly Cloudy
5:00 PM 69 °F 49 °F 39% 29.99 in 15 mi WSW 20.1 mph - -  
5:25 PM 68.0 °F 50.0 °F 52% 29.98 in 6.2 mi SW 20.7 mph - N/A   Partly Cloudy
5:55 PM 68.0 °F 53.6 °F 60% 29.98 in 6.2 mi WSW 18.4 mph - N/A   Partly Cloudy
6:00 PM 68 °F 53 °F 48% 30.00 in 14 mi WSW 17.9 mph - -   Partly Cloudy
6:25 PM 68.0 °F 51.8 °F 56% 29.98 in 6.2 mi WSW 19.6 mph - N/A   Partly Cloudy
6:55 PM 68.0 °F 53.6 °F 60% 30.01 in 6.2 mi WSW 17.3 mph - N/A   Partly Cloudy
7:00 PM 67 °F 54 °F 53% 30.01 in 12 mi WSW 20.1 mph - -   Partly Cloudy
7:25 PM 66.2 °F 55.4 °F 68% 30.01 in 6.2 mi WSW 18.4 mph - N/A   Partly Cloudy
7:55 PM 64.4 °F 53.6 °F 68% 30.01 in 6.2 mi WSW 19.6 mph - N/A   Partly Cloudy
8:00 PM 64 °F 54 °F 62% 30.02 in 12 mi WSW 20.1 mph - -   Partly Cloudy
8:25 PM 64.4 °F 55.4 °F 73% 30.01 in 6.2 mi SW 16.1 mph - N/A   Partly Cloudy
8:55 PM 64.4 °F 55.4 °F 73% 30.01 in 6.2 mi WSW 17.3 mph - N/A Rain Light Rain Showers
9:00 PM 63 °F 54 °F 66% 30.03 in 10 mi SW 15.7 mph - -   Partly Cloudy
9:25 PM 64.4 °F 53.6 °F 68% 30.01 in 6.2 mi SW 17.3 mph - N/A   Partly Cloudy
9:55 PM 62.6 °F 53.6 °F 72% 30.04 in 6.2 mi SW 13.8 mph - N/A   Partly Cloudy
10:25 PM 62.6 °F 51.8 °F 68% 30.04 in 6.2 mi SW 11.5 mph - N/A   Partly Cloudy
10:55 PM 62.6 °F 53.6 °F 72% 30.04 in 6.2 mi SW 15.0 mph - N/A   Partly Cloudy
11:00 PM 61 °F 53 °F 66% 30.04 in 11 mi SW 13.4 mph - -   Partly Cloudy
11:25 PM 60.8 °F 53.6 °F 77% 30.04 in 6.2 mi SSW 12.7 mph - N/A Rain Light Rain Showers
11:55 PM 60.8 °F 53.6 °F 77% 30.04 in 6.2 mi SSW 13.8 mph - N/A   Partly Cloudy